Powrót do katalogu

COSMOS 1275 DEB

LostPO
NORAD 42123·DEBRIS·🇷🇺 Russia

Wystrzelony Jun 4, 1981 z Plesetsk Cosmodrome

Loading…

Następne Przeloty (najbliższe 24 godziny)

TLE

NieaktualneSource: Space-Track

Epoka: Dec 21, 2023, 18:27 UTC

1 42123U 81053QK  23355.76918821  .00002114  00000-0  16959-2 0  9999
2 42123  82.9408 164.4162 0065799  50.8769 309.8219 13.89231584509976

Śledź COSMOS 1275 DEB w czasie rzeczywistym z AllMySat

Download on the App Store